DW1996 Weather Reports


Display with metric or nautical units.
time (UTC)temp
F
wind
direction
speed
MPH
gust
MPH
rain 1hr
in
rain 24hr
in
rain mn
in
humidity
%
barometer
mb
20260905073026 84 196 1.0 6.0 0.00 0.00 0.00 83 1010.8
20260905071525 84 163 3.0 6.0 0.00 0.00 0.00 83 1010.8
20260905070024 84 187 3.0 7.0 0.00 0.00 0.00 83 1010.9
20260905064522 84 204 2.0 7.0 0.00 0.00 0.00 83 1011.1
20260905063021 84 175 3.0 9.0 0.00 0.00 0.00 83 1011.3
20260905061519 84 184 2.0 8.0 0.00 0.00 0.00 82 1011.3
20260905060024 84 153 3.0 7.0 0.00 0.00 0.00 82 1011.2
20260905054541 84 148 2.0 5.0 0.00 0.00 0.00 82 1011.3
20260905053015 85 176 4.0 9.0 0.00 0.00 0.00 82 1011.1
20260905051514 85 171 4.0 10.0 0.00 0.00 0.00 82 1011.1
20260905050012 85 154 6.0 10.0 0.00 0.00 0.00 82 1011.2
20260905044512 85 190 4.0 10.0 0.00 0.00 0.00 83 1011.3
20260905043011 85 128 3.0 10.0 0.00 0.00 0.00 83 1011.2
20260905041512 85 171 2.0 9.0 0.00 0.00 0.00 83 1011.3
20260905040010 85 171 5.0 9.0 0.00 0.00 0.00 82 1011.4
20260905034509 85 182 4.0 8.0 0.00 0.00 0.00 82 1011.3
20260905033014 85 153 5.0 9.0 0.00 0.00 0.00 81 1011.4
20260905031508 85 146 2.0 8.0 0.00 0.00 0.00 81 1011.4
20260905030011 86 146 4.0 7.0 0.00 0.00 0.00 81 1011.2
20260905024506 86 175 5.0 9.0 0.00 0.00 0.00 81 1010.9
20260905023007 86 165 3.0 11.0 0.00 0.00 0.00 80 1010.8
20260905021507 86 153 6.0 11.0 0.00 0.00 0.00 80 1010.6
20260905020006 86 128 3.0 9.0 0.00 0.00 0.00 80 1010.6
20260905014505 86 130 6.0 10.0 0.00 0.00 0.00 80 1010.5
20260905013011 86 148 5.0 10.0 0.00 0.00 0.00 79 1010.3
20260905011506 87 115 4.0 12.0 0.00 0.00 0.00 79 1010.2
20260905010008 87 182 5.0 12.0 0.00 0.00 0.00 78 1010.1
20260905004502 87 162 6.0 16.0 0.00 0.00 0.00 77 1010.1
20260905003003 87 184 6.0 15.0 0.00 0.00 0.00 76 1010.0
20260905001502 88 143 8.0 15.0 0.00 0.00 0.00 75 1010.0
20260905000000 88 134 8.0 18.0 0.00 0.00 0.00 74 1009.9
20260904234501 89 112 8.0 17.0 0.00 0.00 0.00 72 1009.9
20260904233107 89 152 9.0 17.0 0.00 0.00 0.00 71 1009.9
20260904231607 90 157 9.0 15.0 0.00 0.00 0.00 70 1009.9
20260904230059 90 157 9.0 21.0 0.00 0.00 0.00 69 1009.9
20260904224600 90 124 8.0 15.0 0.00 0.00 0.00 70 1009.9
20260904223058 91 126 7.0 16.0 0.00 0.00 0.00 70 1009.8
20260904221605 91 178 7.0 18.0 0.00 0.00 0.00 69 1009.8
20260904220101 91 122 7.0 18.0 0.00 0.00 0.00 68 1009.7
20260904214559 92 155 8.0 14.0 0.00 0.00 0.00 68 1009.7
20260904213055 92 200 7.0 17.0 0.00 0.00 0.00 69 1009.8
20260904211558 93 128 7.0 15.0 0.00 0.00 0.00 65 1009.9
20260904210056 92 111 7.0 15.0 0.00 0.00 0.00 68 1010.0
20260904204553 93 86 7.0 17.0 0.00 0.00 0.00 67 1010.0
20260904203057 93 175 6.0 16.0 0.00 0.00 0.00 66 1010.1
20260904201555 93 145 7.0 16.0 0.00 0.00 0.00 66 1010.0
20260904200109 93 128 6.0 16.0 0.00 0.00 0.00 67 1010.1
20260904194551 93 136 7.0 15.0 0.00 0.00 0.00 67 1010.2
20260904193049 94 140 6.0 12.0 0.00 0.00 0.00 66 1010.3
20260904191547 94 142 7.0 15.0 0.00 0.00 0.00 64 1010.5
20260904190050 95 159 5.0 17.0 0.00 0.00 0.00 65 1010.4
20260904184542 94 173 8.0 14.0 0.00 0.00 0.00 64 1010.5
20260904183042 93 140 8.0 16.0 0.00 0.00 0.00 65 1010.6
20260904181537 93 82 7.0 16.0 0.00 0.00 0.00 65 1010.8
20260904180041 94 174 6.0 15.0 0.00 0.00 0.00 63 1010.9
20260904174531 94 153 9.0 17.0 0.00 0.00 0.00 61 1011.1
20260904173027 93 146 10.0 17.0 0.00 0.00 0.00 63 1011.3
20260904171524 94 178 6.0 15.0 0.00 0.00 0.00 63 1011.4
20260904170021 93 196 6.0 17.0 0.00 0.00 0.00 64 1011.4
20260904164521 93 143 7.0 15.0 0.00 0.00 0.00 63 1011.5
20260904163019 94 178 6.0 18.0 0.00 0.00 0.00 63 1011.7
20260904161512 93 161 9.0 14.0 0.00 0.00 0.00 63 1011.6
20260904160010 93 173 7.0 15.0 0.00 0.00 0.00 63 1011.5
20260904154506 93 171 8.0 14.0 0.00 0.00 0.00 64 1011.6
20260904153003 92 175 7.0 15.0 0.00 0.00 0.00 66 1011.6
20260904151557 91 191 7.0 15.0 0.00 0.00 0.00 68 1011.4
20260904150055 90 195 6.0 14.0 0.00 0.00 0.00 69 1011.5
20260904144554 89 113 6.0 14.0 0.00 0.00 0.00 70 1011.5
20260904143052 90 192 6.0 12.0 0.00 0.00 0.00 71 1011.3
20260904141554 88 162 8.0 13.0 0.00 0.00 0.00 73 1011.4
20260904140043 87 190 4.0 8.0 0.00 0.00 0.00 77 1011.3
20260904134600 85 161 4.0 9.0 0.00 0.00 0.00 79 1011.2
20260904133040 84 186 2.0 7.0 0.00 0.00 0.00 81 1011.1
20260904131540 83 182 0.0 8.0 0.00 0.00 0.00 82 1011.2
20260904130042 83 153 0.0 6.0 0.00 0.00 0.00 82 1011.0
20260904124538 83 142 1.0 9.0 0.00 0.00 0.00 83 1010.8
20260904123035 82 149 2.0 7.0 0.00 0.00 0.00 83 1010.7
20260904121542 82 194 3.0 8.0 0.00 0.00 0.00 83 1010.5
20260904120037 82 119 2.0 6.0 0.00 0.00 0.00 83 1010.4
20260904114534 82 163 2.0 5.0 0.00 0.00 0.00 84 1010.3
20260904113034 82 163 1.0 5.0 0.00 0.00 0.00 84 1010.4
20260904111537 82 181 0.0 3.0 0.00 0.00 0.00 84 1010.3
20260904110030 82 171 1.0 5.0 0.00 0.00 0.00 84 1010.3
20260904104529 82 155 2.0 6.0 0.00 0.00 0.00 84 1010.1
20260904103029 83 184 2.0 7.0 0.00 0.00 0.00 84 1010.0
20260904101508 83 188 1.0 6.0 0.00 0.00 0.00 84 1010.2
20260904100008 83 185 1.0 5.0 0.00 0.00 0.00 84 1010.2
20260904094511 83 163 1.0 5.0 0.00 0.00 0.00 84 1010.2
20260904093006 83 197 0.0 5.0 0.00 0.00 0.00 83 1010.2
20260904091504 83 205 2.0 7.0 0.00 0.00 0.00 83 1010.2
20260904090017 83 204 2.0 7.0 0.00 0.00 0.00 83 1010.2
20260904084504 83 188 3.0 7.0 0.00 0.00 0.00 83 1010.2
20260904083003 83 193 2.0 7.0 0.00 0.00 0.00 83 1010.1
20260904081505 83 190 3.0 10.0 0.00 0.00 0.00 83 1010.1
20260904080001 83 186 4.0 8.0 0.00 0.00 0.00 83 1010.2
20260904074601 84 195 3.0 10.0 0.00 0.00 0.00 83 1010.4